Location: Drummondville
(45.8830°N, 72.4830°W)
Time: 21:56:19
(UTC-05:00)

Vanguard 1 - Visible Passes

Search period start: 22 February 2018 00:00
Search period end: 04 March 2018 00:00
Orbit: 650 x 3833 km, 34.2° (Epoch: 22 February)

Date Brightness Start Highest point End Pass type
(mag) Time Alt. Az. Time Alt. Az. Time Alt. Az.
24 Feb 11.9 17:51:36 10° WSW 17:57:41 23° SSW 18:02:00 10° SSE visible
25 Feb 12.1 18:13:15 10° WSW 18:18:08 18° SW 18:21:51 10° S visible
26 Feb 12.3 18:35:28 10° WSW 18:38:29 13° SW 18:41:03 10° SSW visible
